[[{"header":{"parameterUnit":"m.s-1","parameterCategory":1,"la1":30.2991,"la2":30.254,"lo1":-89.0895,"lo2":-89.0444,"dy":0.0017,"dx":0.0017,"nx":28,"ny":28,"refTime":"2023-07-28T09:00:00:Z","depth":0,"parameterNumber":2,"parameterNumberName":"U-component_of_WINDS"},"data":[0,0,0,0,0,0,0,0,0,0,0,0,0,0,0,0,0,0,0,0,0,0,0,0,0,0,0,0,0,0,0,0,0,0,0,0,0,0,0,0,0,0,0,0,0,0,0,0,0,0,0,0,0,0,0,0,0,0,1.4921,1.4922,0,1.4991,1.4991,1.4992,1.5008,1.5007,1.5007,1.5006,1.5075,1.5078,1.508,0,0,0,0,0,0,0,0,0,0,0,0,0,1.4797,1.4799,1.4921,1.4922,1.4923,1.4991,1.4991,1.4992,1.5008,1.5007,1.5007,1.5006,1.5075,1.5077,1.508,0,0,0,0,0,0,0,0,0,0,0,0,0,1.4857,1.48,1.4921,1.4939,1.4941,1.499,1.4991,1.4993,1.5008,1.5007,1.5006,1.5006,1.5074,1.5077,1.508,1.5116,0,0,1.5091,1.5092,0,0,0,0,0,0,0,0,1.4853,1.4861,1.4935,1.4937,1.494,1.499,1.4973,1.5034,1.5008,1.4982,1.5006,1.5005,1.5047,1.5053,1.5067,1.512,1.5122,1.5091,1.5093,1.5095,1.5096,0,0,0,0,0,0,0,1.4849,1.4859,1.4948,1.4936,1.4939,1.4942,1.4949,1.4985,1.5018,1.4985,1.4986,1.4994,1.5048,1.5064,1.5069,1.5124,1.5091,1.5094,1.5096,1.5098,1.5206,1.5206,0,0,0,0,0,0,1.4842,1.4855,1.4946,1.495,1.4894,1.4944,1.4953,1.4975,1.5018,1.5024,1.4995,1.4995,1.5059,1.5065,1.5072,1.5115,1.5095,1.5098,1.51,1.5205,1.5206,1.5207,0,0,0,0,0,0,1.484,1.4851,1.4943,1.4903,1.4915,1.4947,1.4971,1.4976,1.4992,1.5025,1.5031,1.5005,1.5058,1.5067,1.5105,1.5118,1.51,1.5103,1.5204,1.5205,1.5206,1.5203,0,0,0,0,0,0,1.4836,1.4849,1.4865,1.4903,1.4917,1.4976,1.4972,1.4978,1.4998,1.4999,1.5036,1.5042,1.5058,1.5099,1.5108,1.5122,1.5105,1.5203,1.5205,1.5206,1.5202,1.5203,1.5205,0,0,0,0,0,1.4832,1.4861,1.4865,1.4876,1.4937,1.4977,1.4985,1.5004,1.4999,1.5014,1.5035,1.5041,1.5115,1.5103,1.5113,1.5128,1.5202,1.5204,1.5206,1.5201,1.5203,1.5205,0,0,0,0,0,0,1.4822,1.4866,1.4872,1.4914,1.4942,1.498,1.4999,1.5006,1.5035,1.5034,1.5056,1.5064,1.51,1.5118,1.5104,1.5164,1.5158,1.5162,1.5151,1.5153,1.5155,1.515,1.5108,0,0,0,0,0,1.4825,1.4855,1.4892,1.4926,1.4939,1.4966,1.4985,1.4997,1.5026,1.5038,1.5062,1.5089,1.5118,1.5137,1.5166,1.5204,1.5212,1.5219,1.5221,1.5222,1.5225,1.5245,1.5248,1.5213,1.5213,1.5213,0,0,1.4831,1.4859,1.4877,1.4924,1.4947,1.4976,1.4976,1.5008,1.5029,1.5042,1.5079,1.5097,1.5129,1.5167,1.5185,1.5183,1.5236,1.5225,1.5225,1.5227,1.5247,1.525,1.5253,1.5214,1.5214,1.5214,0,0,1.4857,1.4882,1.4912,1.4935,1.4969,1.4987,1.4994,1.5031,1.5043,1.5081,1.5091,1.5116,1.5166,1.5188,1.5205,1.5237,1.5243,1.5246,1.5254,1.5273,1.5276,1.5278,1.5288,1.5291,1.5248,1.5248,1.5248,0,1.486,1.4906,1.4927,1.4957,1.4977,1.499,1.502,1.504,1.5082,1.5095,1.5092,1.5154,1.5177,1.5219,1.5226,1.524,1.5248,1.5241,1.5274,1.5277,1.5279,1.5289,1.5293,1.5248,1.5248,1.5248,1.5248,0,1.4907,1.4938,1.4958,1.4998,1.502,1.505,1.5073,1.5093,1.5103,1.512,1.5157,1.5184,1.5217,1.5228,1.5239,1.5271,1.5269,1.527,1.5264,1.5282,1.5291,1.5295,1.5248,1.5248,1.5248,1.5248,0,0,1.493,1.498,1.4987,1.5004,1.5042,1.5066,1.5095,1.5129,1.5144,1.5172,1.5196,1.5237,1.5238,1.5258,1.527,1.5287,1.5308,1.5285,1.5286,1.5287,1.5343,1.5342,1.5346,1.5312,1.5313,1.5313,1.534,0,1.4959,1.5013,1.5032,1.5076,1.5103,1.5116,1.5141,1.5166,1.5183,1.5208,1.5225,1.5254,1.5254,1.5265,1.5282,1.5302,1.5319,1.53,1.5333,1.5334,1.5324,1.5351,1.535,1.5374,1.5344,1.5345,1.5345,0,1.5001,1.5029,1.5076,1.5109,1.5121,1.5144,1.5175,1.5199,1.5227,1.5238,1.5259,1.527,1.5299,1.5292,1.5332,1.5318,1.5333,1.5344,1.5345,1.5349,1.534,1.5354,1.5382,1.5385,1.5351,1.5351,1.5351,0,1.5011,1.5061,1.5095,1.5109,1.5149,1.5164,1.5181,1.5209,1.5227,1.5253,1.5265,1.5295,1.531,1.5332,1.535,1.5344,1.5387,1.5382,1.5396,1.5395,1.5404,1.5403,1.5434,1.5415,1.5415,1.5415,1.5415,0,1.5041,1.5069,1.5099,1.512,1.5151,1.5171,1.52,1.5218,1.5242,1.5265,1.5277,1.5299,1.5321,1.5345,1.5359,1.5389,1.5396,1.5404,1.5407,1.5403,1.5401,1.5412,1.541,1.5416,1.5416,1.5415,1.5415,0,1.5057,1.5079,1.5116,1.5151,1.516,1.5181,1.5209,1.5229,1.5246,1.5275,1.5282,1.5308,1.5337,1.5357,1.5393,1.5402,1.5434,1.5438,1.5425,1.5426,1.5438,1.5436,1.5476,1.5482,1.5459,1.5459,1.546,0,1.5075,1.5096,1.5132,1.5149,1.5166,1.5193,1.5212,1.5231,1.525,1.5282,1.5298,1.5327,1.5351,1.5396,1.5417,1.5444,1.5448,1.546,1.5452,1.5446,1.5447,1.5445,1.5446,1.5461,1.5461,1.5461,1.5462,0,1.5103,1.5112,1.5139,1.5169,1.519,1.5215,1.5239,1.5252,1.5276,1.5295,1.5325,1.5344,1.5381,1.5409,1.5438,1.5454,1.5461,1.5464,1.5468,1.5463,1.5454,1.5458,1.5427,1.5463,1.5463,1.5463,1.5462,1.5462,1.5119,1.5138,1.5166,1.5195,1.5215,1.5237,1.5257,1.5276,1.5301,1.5333,1.5343,1.5373,1.5398,1.5438,1.5455,1.5477,1.5477,1.5483,1.5485,1.5486,1.5485,1.5451,1.5483,1.5483,1.5483,1.5483,1.5483,0,1.5147,1.5165,1.5191,1.5225,1.5247,1.5253,1.5279,1.5297,1.5323,1.5347,1.537,1.5403,1.543,1.5453,1.5481,1.5494,1.5498,1.5501,1.55,1.5503,1.5485,1.5478,1.5497,1.5497,1.5497,1.5497,1.5497,1.5497,1.5164,1.5196,1.5208,1.5249,1.5267,1.5297,1.5312,1.5331,1.535,1.5386,1.5409,1.5424,1.5447,1.5476,1.55,1.5506,1.5515,1.5517,1.5523,1.5506,1.5504,1.5503,1.5496,1.5519,1.5519,1.5539,1.554,1.554]},{"header":{"parameterUnit":"m.s-1","parameterCategory":1,"la1":30.2991,"la2":30.254,"lo1":-89.0895,"lo2":-89.0444,"dy":0.0017,"dx":0.0017,"nx":28,"ny":28,"refTime":"2023-07-28T09:00:00:Z","depth":0,"parameterNumber":3,"parameterNumberName":"V-component_of_WINDS"},"data":[0,0,0,0,0,0,0,0,0,0,0,0,0,0,0,0,0,0,0,0,0,0,0,0,0,0,0,0,0,0,0,0,0,0,0,0,0,0,0,0,0,0,0,0,0,0,0,0,0,0,0,0,0,0,0,0,0,0,4.213,4.213,0,4.213,4.213,4.213,4.207,4.2068,4.2067,4.2065,4.2065,4.2066,4.2067,0,0,0,0,0,0,0,0,0,0,0,0,0,4.2078,4.208,4.213,4.213,4.213,4.213,4.213,4.213,4.207,4.2068,4.2066,4.2064,4.2064,4.2066,4.2068,0,0,0,0,0,0,0,0,0,0,0,0,0,4.2092,4.208,4.213,4.21,4.2098,4.213,4.213,4.213,4.207,4.2068,4.2066,4.2064,4.2064,4.2066,4.2068,4.2128,0,0,4.2074,4.2075,0,0,0,0,0,0,0,0,4.2091,4.2094,4.2105,4.2103,4.21,4.2097,4.2111,4.2129,4.2071,4.2081,4.2065,4.2062,4.2077,4.2078,4.2083,4.2128,4.2128,4.2075,4.2076,4.2077,4.2078,0,0,0,0,0,0,0,4.209,4.2093,4.213,4.2105,4.2102,4.2087,4.2086,4.2114,4.2092,4.208,4.2075,4.2076,4.2076,4.2081,4.2083,4.2128,4.2075,4.2077,4.2078,4.2079,4.2221,4.2223,0,0,0,0,0,0,4.2093,4.2093,4.213,4.213,4.2089,4.209,4.2089,4.21,4.2092,4.2088,4.2078,4.2073,4.2079,4.208,4.2083,4.2151,4.2077,4.2079,4.208,4.2218,4.2221,4.2224,0,0,0,0,0,0,4.2093,4.2097,4.213,4.211,4.2113,4.2093,4.2107,4.2102,4.2107,4.2091,4.2086,4.2088,4.2077,4.208,4.2117,4.215,4.208,4.2082,4.2216,4.2219,4.2223,4.229,0,0,0,0,0,0,4.2091,4.2097,4.2121,4.2111,4.2115,4.2165,4.2109,4.2103,4.2111,4.2105,4.2099,4.2096,4.2075,4.2114,4.2119,4.2152,4.2084,4.2212,4.2217,4.2222,4.2285,4.2295,4.2305,0,0,0,0,0,4.209,4.214,4.2122,4.2127,4.2143,4.2167,4.2169,4.2144,4.2114,4.2137,4.2126,4.2096,4.2146,4.2118,4.2124,4.2158,4.221,4.2216,4.2221,4.228,4.2293,4.2305,0,0,0,0,0,0,4.2154,4.2138,4.2118,4.2167,4.2169,4.2157,4.2185,4.216,4.217,4.2164,4.2133,4.2132,4.2174,4.217,4.2139,4.2215,4.2173,4.218,4.2216,4.2228,4.2238,4.2237,4.2085,0,0,0,0,0,4.2174,4.2195,4.218,4.2224,4.2226,4.2206,4.2215,4.2196,4.2196,4.2197,4.2189,4.219,4.2206,4.2217,4.2231,4.2284,4.2281,4.231,4.232,4.2329,4.2334,4.236,4.2372,4.2242,4.2242,4.2242,0,0,4.2215,4.2209,4.2224,4.2237,4.2236,4.2257,4.2206,4.2232,4.2247,4.2201,4.2235,4.2229,4.2229,4.2274,4.2293,4.2272,4.237,4.2336,4.2343,4.2344,4.2367,4.238,4.2391,4.2246,4.2245,4.2245,0,0,4.23,4.2299,4.2334,4.2334,4.2333,4.2319,4.2328,4.232,4.2314,4.2348,4.2313,4.2331,4.2359,4.236,4.2364,4.2449,4.2421,4.2455,4.2506,4.2532,4.2542,4.2551,4.2579,4.259,4.2461,4.2461,4.2461,0,4.2351,4.2382,4.2356,4.2383,4.2389,4.2348,4.2383,4.2385,4.2389,4.2393,4.2369,4.2403,4.2401,4.2444,4.2465,4.247,4.2478,4.2454,4.2543,4.2552,4.2559,4.2586,4.2597,4.2465,4.2464,4.2464,4.2463,0,4.2444,4.2466,4.2495,4.2499,4.2509,4.254,4.2518,4.253,4.2511,4.2499,4.2533,4.2528,4.254,4.2549,4.2531,4.259,4.2576,4.2548,4.2505,4.2576,4.26,4.2611,4.247,4.2469,4.2468,4.2467,0,0,4.2569,4.2557,4.2568,4.2569,4.2564,4.2581,4.261,4.2621,4.2631,4.2636,4.2658,4.2683,4.2657,4.2661,4.2643,4.2666,4.273,4.2634,4.2634,4.2651,4.2793,4.2813,4.2825,4.2713,4.2715,4.2716,4.2793,0,4.265,4.2698,4.2675,4.2726,4.2745,4.2706,4.2731,4.2731,4.2721,4.2735,4.2724,4.2741,4.2706,4.2708,4.273,4.2718,4.2758,4.2713,4.2732,4.2733,4.2731,4.2838,4.2859,4.2931,4.2802,4.2804,4.2805,0,4.275,4.2758,4.281,4.2801,4.2808,4.2831,4.2838,4.2853,4.2851,4.2842,4.2847,4.2823,4.285,4.2809,4.2845,4.2814,4.2821,4.2817,4.2819,4.2818,4.2772,4.2838,4.2954,4.2964,4.282,4.2819,4.2818,0,4.2833,4.2857,4.289,4.2893,4.2883,4.29,4.2897,4.2893,4.29,4.2907,4.2911,4.2921,4.2926,4.2935,4.2913,4.2885,4.2952,4.2909,4.2944,4.2944,4.2958,4.2957,4.3074,4.2966,4.2966,4.2966,4.2966,0,4.2925,4.2958,4.2927,4.2948,4.2984,4.2957,4.2993,4.2985,4.2982,4.3,4.2968,4.2986,4.2958,4.2973,4.2956,4.2988,4.2991,4.2984,4.2978,4.2985,4.2986,4.2988,4.2981,4.2969,4.2968,4.2968,4.2967,0,4.3023,4.3004,4.3038,4.3026,4.3024,4.305,4.304,4.3058,4.3046,4.3069,4.3073,4.3053,4.3069,4.3049,4.3063,4.3052,4.3094,4.3083,4.3094,4.309,4.3125,4.3122,4.3246,4.326,4.3145,4.3147,4.3148,0,4.3081,4.3106,4.3096,4.3105,4.3104,4.312,4.3127,4.3102,4.311,4.311,4.3128,4.3141,4.315,4.3177,4.3164,4.3174,4.3161,4.3204,4.3162,4.3168,4.3159,4.3157,4.3158,4.3212,4.3213,4.3215,4.3216,0,4.3186,4.3175,4.3187,4.3195,4.3204,4.3209,4.3212,4.3222,4.3195,4.3206,4.3221,4.3228,4.3242,4.3254,4.3261,4.3258,4.3232,4.3229,4.3237,4.3243,4.3248,4.3244,4.3115,4.3226,4.3225,4.3224,4.3223,4.3223,4.3265,4.3284,4.3279,4.3293,4.3292,4.3295,4.3311,4.33,4.3312,4.3321,4.3305,4.3324,4.3321,4.3328,4.3327,4.3341,4.3323,4.3335,4.3338,4.3341,4.3345,4.3248,4.3343,4.3343,4.3342,4.3342,4.3342,0,4.3366,4.3361,4.3374,4.3378,4.3388,4.3363,4.3365,4.3375,4.3391,4.3391,4.34,4.3417,4.3429,4.3417,4.3427,4.344,4.3428,4.3443,4.3441,4.344,4.3362,4.3353,4.3452,4.3452,4.3452,4.3452,4.3452,4.3452,4.342,4.345,4.3438,4.3467,4.3462,4.348,4.3483,4.3485,4.3484,4.3504,4.3514,4.3506,4.35,4.3509,4.3519,4.3515,4.3519,4.3538,4.353,4.3457,4.3446,4.3436,4.3427,4.354,4.354,4.3606,4.3607,4.3607]}]]